[[{"header":{"parameterUnit":"m.s-1","parameterCategory":1,"la1":30.2992,"la2":30.254,"lo1":-89.0895,"lo2":-89.0443,"dy":0.0025,"dx":0.0025,"nx":19,"ny":19,"refTime":"2026-04-07T03:00:00:Z","depth":0,"parameterNumber":2,"parameterNumberName":"U-component_of_WINDS"},"data":[0,0,0,-1.9654,-1.9655,-1.9701,-1.9701,-1.978,-1.9781,0,0,0,0,0,0,0,0,0,0,0,-1.9652,-1.9653,-1.9654,-1.9655,-1.9701,-1.9701,-1.978,-1.9781,0,0,0,0,0,0,0,0,0,0,0,-1.9652,-1.9653,-1.9654,-1.9655,-1.9701,-1.9701,-1.978,-1.9738,0,0,0,0,0,0,0,0,0,0,-1.969,-1.97,-1.9653,-1.9654,-1.9656,-1.9701,-1.9701,-1.9736,-1.9741,-1.9768,0,-1.9795,0,-1.979,-1.9788,-1.9788,0,0,0,-1.9646,-1.9696,-1.9698,-1.9654,-1.9656,-1.9701,-1.9678,-1.9738,-1.9744,-1.9775,-1.9796,-1.9799,-1.9791,-1.9788,-1.9789,-1.9976,-1.9977,0,0,-1.9644,-1.9667,-1.9694,-1.9702,-1.9696,-1.9676,-1.9679,-1.9741,-1.9767,-1.9797,-1.98,-1.9792,-1.9789,-1.979,-1.9975,-1.9976,0,0,0,-1.9642,-1.9666,-1.9665,-1.9699,-1.9706,-1.9678,-1.9681,-1.9764,-1.9762,-1.9801,-1.9793,-1.979,-1.9791,-1.9973,-1.9975,-2.0063,0,0,0,-1.964,-1.9665,-1.9664,-1.968,-1.9705,-1.9736,-1.9703,-1.9757,-1.9764,-1.9793,-1.979,-1.9792,-1.9972,-1.9974,-2.0057,-2.0101,0,0,0,-1.9645,-1.9665,-1.9676,-1.9681,-1.9701,-1.9734,-1.9735,-1.9758,-1.9759,-1.9788,-1.9792,-1.9971,-1.9974,-2.0052,-2.0093,-2.0158,0,0,0,-1.9657,-1.9754,-1.9678,-1.9782,-1.9701,-1.9787,-1.9734,-1.9797,-1.9832,-1.979,-1.9972,-1.9975,-2.0051,-2.0088,-2.0153,-2.0218,-2.0247,0,0,-1.9792,-1.9771,-1.983,-1.9764,-1.987,-1.9778,-1.9897,-1.9907,-1.9888,-1.9948,-1.9952,-2.0059,-2.0092,-2.0157,-2.0398,-2.0421,0,0,0,-1.9881,-1.9925,-1.9947,-1.9982,-1.9991,-2.0002,-1.9991,-1.9995,-2.0044,-1.9923,-2.0098,-2.0117,-2.0154,-2.0184,-2.0204,-2.0235,-1.9989,-1.9989,-1.9989,-2.0108,-2.0078,-2.0174,-2.015,-2.0183,-2.017,-2.0195,-2.0197,-2.0157,-2.0199,-2.0218,-2.0367,-2.0404,-2.0418,-2.045,-2.0248,-2.0248,-2.0248,-2.0249,-2.0304,-2.0361,-2.0304,-2.0378,-2.0345,-2.0407,-2.0397,-2.0367,-2.042,-2.0351,-2.0382,-2.0312,-2.0445,-2.0471,-2.0255,-2.0254,-2.0253,-2.0252,-2.0252,-2.0451,-2.0473,-2.0475,-2.052,-2.0559,-2.0529,-2.0583,-2.055,-2.0521,-2.0551,-2.0567,-2.0566,-2.0561,-2.0561,-2.0561,-2.0562,-2.0562,-2.0563,-2.0563,-2.0604,-2.0602,-2.0651,-2.0668,-2.0685,-2.0703,-2.069,-2.0706,-2.0716,-2.0688,-2.0688,-2.0645,-2.0462,-2.0418,-2.0571,-2.0569,-2.0568,-2.0568,-2.0567,-2.0817,-2.0763,-2.0839,-2.0856,-2.0872,-2.0913,-2.087,-2.0905,-2.0914,-2.0941,-2.089,-2.076,-2.0736,-2.072,-2.0683,-2.0895,-2.0895,-2.0896,-2.0896,-2.0943,-2.0926,-2.0995,-2.1025,-2.105,-2.1019,-2.1105,-2.1095,-2.1076,-2.1079,-2.1043,-2.0991,-2.0976,-2.0961,-2.094,-2.0905,-2.1169,-2.1169,-2.117,-2.1073,-2.1057,-2.1137,-2.1117,-2.1127,-2.1136,-2.1216,-2.1253,-2.122,-2.118,-2.1081,-2.107,-2.0985,-2.0959,-2.092,-2.0887,-2.0823,0,0]},{"header":{"parameterUnit":"m.s-1","parameterCategory":1,"la1":30.2992,"la2":30.254,"lo1":-89.0895,"lo2":-89.0443,"dy":0.0025,"dx":0.0025,"nx":19,"ny":19,"refTime":"2026-04-07T03:00:00:Z","depth":0,"parameterNumber":3,"parameterNumberName":"V-component_of_WINDS"},"data":[0,0,0,-6.3487,-6.3492,-6.3697,-6.3697,-6.3968,-6.397,0,0,0,0,0,0,0,0,0,0,0,-6.3436,-6.3439,-6.3487,-6.3492,-6.3696,-6.3697,-6.3967,-6.397,0,0,0,0,0,0,0,0,0,0,0,-6.3435,-6.3438,-6.3441,-6.3493,-6.3696,-6.3697,-6.3967,-6.3808,0,0,0,0,0,0,0,0,0,0,-6.3608,-6.3571,-6.3437,-6.3441,-6.3494,-6.3696,-6.3697,-6.38,-6.3818,-6.388,0,-6.3942,0,-6.3961,-6.3989,-6.399,0,0,0,-6.3484,-6.3557,-6.3603,-6.3441,-6.3496,-6.3696,-6.3602,-6.381,-6.383,-6.3904,-6.3945,-6.3955,-6.3965,-6.3991,-6.3993,-6.4386,-6.4388,0,0,-6.3473,-6.3478,-6.359,-6.3617,-6.359,-6.3596,-6.3609,-6.3822,-6.3866,-6.3946,-6.3961,-6.397,-6.3993,-6.3995,-6.4384,-6.4387,0,0,0,-6.3446,-6.347,-6.3511,-6.3606,-6.3642,-6.3602,-6.3617,-6.3857,-6.387,-6.3964,-6.3973,-6.3995,-6.3998,-6.4382,-6.4385,-6.45,0,0,0,-6.3439,-6.3454,-6.3507,-6.3511,-6.3639,-6.3753,-6.3647,-6.3855,-6.3879,-6.3971,-6.3995,-6.4001,-6.4379,-6.4383,-6.4491,-6.4553,0,0,0,-6.342,-6.3452,-6.3485,-6.3511,-6.36,-6.375,-6.3775,-6.386,-6.3885,-6.3991,-6.4002,-6.4377,-6.4383,-6.4484,-6.4541,-6.4657,0,0,0,-6.3399,-6.3583,-6.3487,-6.3695,-6.3598,-6.382,-6.3773,-6.3938,-6.4042,-6.3996,-6.4379,-6.4385,-6.4482,-6.4533,-6.4649,-6.4756,-6.4802,0,0,-6.3634,-6.3612,-6.3734,-6.3653,-6.3895,-6.3789,-6.4045,-6.4135,-6.4139,-6.4302,-6.4312,-6.4494,-6.454,-6.4656,-6.5055,-6.5091,0,0,0,-6.3809,-6.3897,-6.396,-6.4061,-6.4136,-6.4203,-6.4254,-6.4287,-6.4426,-6.4225,-6.4568,-6.4595,-6.4663,-6.4713,-6.4744,-6.4801,-6.4409,-6.4408,-6.4407,-6.4147,-6.4144,-6.4345,-6.4367,-6.4465,-6.4515,-6.4593,-6.4645,-6.4613,-6.4693,-6.4742,-6.4985,-6.5045,-6.5068,-6.5127,-6.4798,-6.4799,-6.4799,-6.48,-6.4489,-6.4612,-6.4565,-6.4744,-6.4738,-6.4886,-6.494,-6.4912,-6.5047,-6.4948,-6.5008,-6.49,-6.5108,-6.5159,-6.4808,-6.4807,-6.4806,-6.4805,-6.4804,-6.4709,-6.4768,-6.4806,-6.4951,-6.5062,-6.5076,-6.5208,-6.5198,-6.5189,-6.5248,-6.5297,-6.5295,-6.5291,-6.5272,-6.5273,-6.5274,-6.5274,-6.5275,-6.5276,-6.4923,-6.4962,-6.5077,-6.5171,-6.5234,-6.5315,-6.5365,-6.5425,-6.5489,-6.547,-6.5471,-6.5429,-6.5129,-6.5054,-6.5289,-6.5286,-6.5285,-6.5283,-6.5283,-6.527,-6.519,-6.5367,-6.543,-6.5538,-6.5648,-6.5633,-6.5756,-6.5804,-6.5869,-6.5814,-6.5595,-6.557,-6.5546,-6.5483,-6.5815,-6.5815,-6.5816,-6.5816,-6.5456,-6.5443,-6.5621,-6.5722,-6.5819,-6.5824,-6.602,-6.606,-6.6088,-6.6116,-6.6067,-6.5983,-6.5958,-6.5948,-6.5915,-6.5856,-6.6276,-6.6277,-6.6277,-6.5668,-6.5664,-6.5835,-6.5865,-6.5948,-6.6019,-6.6202,-6.6317,-6.6332,-6.6295,-6.6138,-6.6119,-6.5983,-6.594,-6.59,-6.5848,-6.5741,0,0]}]]